PAKSAT-1R

Last updated on Sun Dec 14 2025 00:02:50 GMT+0000 (Coordinated Universal Time)

1 37779U 11042A 25347.21125503 .00000167 00000+0 00000+0 0 9993 2 37779 0.2085 86.2032 0000979 267.6295 202.4029 1.00277162 52612
UTC large
Height (km)
Speed (km/s)
/
Latitude / Longitude
Inclination (degrees)
Orbital Period (minutes)
Azimuth
Elevation
Range (km)
Doppler Factor

Next 0 passes for location: London (51.5072 / 0.1276)

Sorry there are no passes over London.